Onweer radar Meer informatie blitzortung!


Regen radar Meer informatie rain snow radar


Bezoek onze andere website:

Template documentation
and downloads

And another site



Het weer levert geen direct gevaar op.    Er zijn geen waarschuwingen afgegeven.

Select another period ( hide this area )

Eenheden Periode Custom range Directly to
Metrisch Engels Beide
Dagelijkse Wekelijkse Maandelijkse Jaarlijkse
use both date-selectors for a custom range
previous Dag
With this date

WeatherUnderground graphs for this period ( click here )


Dagelijkse Samenvatting Zaterdag 17 november 2018
Tijd Temp. ( °C ) Dew pt. ( °C ) Wind ( km/h ) van Windvlaag ( km/h ) Luchtdruk ( hPa ) Humid.( % ) Rainrate ( cm )
Hoog9,4 1,1 14,5 ONO ( 30/66 ) 20,9 1029,7 82 0,25
Gemiddeld1,2 -2,4 1,9 Kalm #38/54 4,2 1029,3 78 0,00
Laag-1,7 -4,4 -   0,0 1028,3 54 -
Dagelijkse Tabular details for Zaterdag 17 november 2018
Tijd Temp. ( °C ) Dew pt. ( °C ) Wind ( km/h ) van Windvlaag ( km/h ) Luchtdruk ( hPa ) Humid.( % ) Rainrate ( cm )
00:00 0,8 -2,2   Kalm   1028,3 81 -
00:15 0,6 -2,2   Kalm   1028,3 81 -
00:30 0,3 -2,8   Kalm   1028,3 81 -
00:45 0,0 -2,8   Kalm   1028,3 81 -
01:00 -0,2 -2,8   Kalm   1028,3 81 -
01:15 0,0 -2,8   Kalm   1028,7 81 -
01:30 -0,7 -3,3   Kalm   1028,7 81 -
01:45 -0,5 -3,3   Kalm   1028,7 82 -
02:00 -0,7 -3,3   Kalm   1028,7 81 -
02:15 -0,7 -3,3   Kalm   1029,0 82 -
02:30 -0,7 -3,3   Kalm   1028,7 82 -
02:45 -0,8 -3,3   Kalm   1029,0 82 -
03:00 -1,0 -3,9   Kalm   1029,0 81 -
03:15 -0,9 -3,9   Kalm   1029,0 82 -
03:30 -1,1 -3,9   Kalm   1029,0 82 -
03:45 -1,1 -3,9   Kalm   1029,0 82 -
04:00 -0,9 -3,9   Kalm   1028,7 82 -
04:15 -1,1 -3,9   Kalm   1028,7 82 -
04:30 -1,2 -3,9   Kalm   1028,7 82 -
04:45 -1,2 -3,9   Kalm   1028,7 82 -
05:00 -1,2 -3,9   Kalm   1028,7 82 -
05:15 -1,3 -3,9   Kalm   1028,7 82 -
05:30 -1,4 -3,9   Kalm   1028,7 82 -
05:45 -1,5 -4,4   Kalm   1028,3 82 -
06:15 -1,6 -4,4   Kalm   1028,7 82 -
06:30 -1,0 -3,9   Kalm   1028,7 82 -
06:45 -1,0 -3,9   Kalm   1028,7 82 -
07:00 -1,3 -3,9   Kalm   1028,7 82 -
07:15 -1,5 -4,4   Kalm   1029,0 82 -
07:30 -1,6 -4,4   Kalm   1029,0 82 -
07:45 -1,7 -4,4   Kalm   1029,0 82 -
08:15 -1,6 -4,4   Kalm   1029,0 82 -
08:30 -1,4 -3,9   Kalm   1029,3 82 -
08:45 -1,1 -3,9   Kalm   1029,3 82 -
09:00 -0,9 -3,3   Kalm   1029,3 82 -
09:15 -0,4 -3,3   Kalm   1029,3 82 -
09:30 0,1 -2,8   Kalm   1029,3 81 -
09:45 1,1 -1,7   Kalm   1029,3 82 0,25
10:00 1,8 -1,1 1,6 ONO 4,8 1029,3 81 0,25
10:15 2,3 -0,6 3,2 ONO 8,0 1029,3 81 0,25
10:30 3,0 0,0 4,8 ONO 9,7 1029,3 81 0,25
10:45 3,4 0,0 6,4 NNO 11,3 1029,3 80 -
11:00 3,9 0,6 6,4 NO 12,9 1029,3 78 -
11:15 4,6 0,6 4,8 NO 17,7 1029,7 76 -
11:30 5,4 0,6 14,5 NO 16,1 1029,7 72 -
11:45 6,1 0,6 6,4 ZO 12,9 1029,3 69 -
12:00 6,6 1,1 4,8 ONO 16,1 1029,3 67 -
12:15 7,2 0,6 6,4 ONO 19,3 1029,0 64 -
12:30 7,7 0,6 6,4 NO 14,5 1029,0 62 -
12:45 8,4 1,1 8,0 ONO 14,5 1029,0 60 -
13:00 8,7 1,1 8,0 NO 12,9 1029,0 59 -
13:15 8,9 0,6 4,8 Oosten 16,1 1029,0 56 -
13:30 9,2 0,6 11,3 ONO 20,9 1029,0 56 -
13:45 9,4 0,6 8,0 ONO 19,3 1029,0 54 -
Dagelijkse Samenvatting Zaterdag 17 november 2018
Tijd Temp. ( °C ) Dew pt. ( °C ) Wind ( km/h ) van Windvlaag ( km/h ) Luchtdruk ( hPa ) Humid.( % ) Rainrate ( cm )
Hoog9,4 1,1 14,5 ONO ( 30/66 ) 20,9 1029,7 82 0,25
Gemiddeld1,2 -2,4 1,9 Kalm #38/54 4,2 1029,3 78 0,00
Laag-1,7 -4,4 -   0,0 1028,3 54 -
Dagelijkse Tabular details for Zaterdag 17 november 2018
Tijd Temp. ( °C ) Dew pt. ( °C ) Wind ( km/h ) van Windvlaag ( km/h ) Luchtdruk ( hPa ) Humid.( % ) Rainrate ( cm )
00:00 0,8 -2,2   Kalm   1028,3 81 -
00:15 0,6 -2,2   Kalm   1028,3 81 -
00:30 0,3 -2,8   Kalm   1028,3 81 -
00:45 0,0 -2,8   Kalm   1028,3 81 -
01:00 -0,2 -2,8   Kalm   1028,3 81 -
01:15 0,0 -2,8   Kalm   1028,7 81 -
01:30 -0,7 -3,3   Kalm   1028,7 81 -
01:45 -0,5 -3,3   Kalm   1028,7 82 -
02:00 -0,7 -3,3   Kalm   1028,7 81 -
02:15 -0,7 -3,3   Kalm   1029,0 82 -
02:30 -0,7 -3,3   Kalm   1028,7 82 -
02:45 -0,8 -3,3   Kalm   1029,0 82 -
03:00 -1,0 -3,9   Kalm   1029,0 81 -
03:15 -0,9 -3,9   Kalm   1029,0 82 -
03:30 -1,1 -3,9   Kalm   1029,0 82 -
03:45 -1,1 -3,9   Kalm   1029,0 82 -
04:00 -0,9 -3,9   Kalm   1028,7 82 -
04:15 -1,1 -3,9   Kalm   1028,7 82 -
04:30 -1,2 -3,9   Kalm   1028,7 82 -
04:45 -1,2 -3,9   Kalm   1028,7 82 -
05:00 -1,2 -3,9   Kalm   1028,7 82 -
05:15 -1,3 -3,9   Kalm   1028,7 82 -
05:30 -1,4 -3,9   Kalm   1028,7 82 -
05:45 -1,5 -4,4   Kalm   1028,3 82 -
06:15 -1,6 -4,4   Kalm   1028,7 82 -
06:30 -1,0 -3,9   Kalm   1028,7 82 -
06:45 -1,0 -3,9   Kalm   1028,7 82 -
07:00 -1,3 -3,9   Kalm   1028,7 82 -
07:15 -1,5 -4,4   Kalm   1029,0 82 -
07:30 -1,6 -4,4   Kalm   1029,0 82 -
07:45 -1,7 -4,4   Kalm   1029,0 82 -
08:15 -1,6 -4,4   Kalm   1029,0 82 -
08:30 -1,4 -3,9   Kalm   1029,3 82 -
08:45 -1,1 -3,9   Kalm   1029,3 82 -
09:00 -0,9 -3,3   Kalm   1029,3 82 -
09:15 -0,4 -3,3   Kalm   1029,3 82 -
09:30 0,1 -2,8   Kalm   1029,3 81 -
09:45 1,1 -1,7   Kalm   1029,3 82 0,25
10:00 1,8 -1,1 1,6 ONO 4,8 1029,3 81 0,25
10:15 2,3 -0,6 3,2 ONO 8,0 1029,3 81 0,25
10:30 3,0 0,0 4,8 ONO 9,7 1029,3 81 0,25
10:45 3,4 0,0 6,4 NNO 11,3 1029,3 80 -
11:00 3,9 0,6 6,4 NO 12,9 1029,3 78 -
11:15 4,6 0,6 4,8 NO 17,7 1029,7 76 -
11:30 5,4 0,6 14,5 NO 16,1 1029,7 72 -
11:45 6,1 0,6 6,4 ZO 12,9 1029,3 69 -
12:00 6,6 1,1 4,8 ONO 16,1 1029,3 67 -
12:15 7,2 0,6 6,4 ONO 19,3 1029,0 64 -
12:30 7,7 0,6 6,4 NO 14,5 1029,0 62 -
12:45 8,4 1,1 8,0 ONO 14,5 1029,0 60 -
13:00 8,7 1,1 8,0 NO 12,9 1029,0 59 -
13:15 8,9 0,6 4,8 Oosten 16,1 1029,0 56 -
13:30 9,2 0,6 11,3 ONO 20,9 1029,0 56 -
13:45 9,4 0,6 8,0 ONO 19,3 1029,0 54 -

Download your copy of this data-set  here

Our weather-data as stored at Weather Underground. Script ontwikkeld door Jim McMurry. Aangepast voor de template door Leuven-Template.eu

U vindt ons ook hier:

Het Weer Aktueel

European Weather Network

Weather Underground

Apparatuur in gebruik:

Weerstation
Oregon WMR 200

Webleverancier
one.com

Oregon WMR 200

one.com